Other Public Products
Issued by NWS Grand Forks, ND

Home | Current Version | Previous Version | Graphics & Text | Print | Product List | Glossary On
Versions: 1 2 3 4 5 6 7 8 9 10 11 12 13 14 15 16 17 18 19 20 21 22 23 24 25 26 27 28 29 30 31 32 33 34 35 36 37 38 39 40 41 42 43 44 45 46 47 48 49 50
000
FPUS83 KFGF 012031
OPUFGF
PRAIRIE TO PINES WEATHER ROUNDUP
NATIONAL WEATHER SERVICE EASTERN NORTH DAKOTA/GRAND FORKS ND
300 PM CDT FRI AUG 01 2014

 **SATELLITE DATA USED TO AUGMENT SKY COVER AT AUTOMATED STATIONS**
 *****  WEATHER ACROSS EASTERN NORTH DAKOTA  *****

CITY           SKY/WX    TMP DP  RH WIND       PRES   REMARKS
GRAND FORKS    MOSUNNY   82  59  45 NE8       30.07S
GRAND FORKS AF MOSUNNY   81  61  51 VRB6      30.08F
GRAND CITY NWS   N/A     82 N/A N/A NE3         N/A
BUXTON           N/A     85  59  41 NE3         N/A
DEVILS LAKE    MOSUNNY   81  57  44 SE8       30.08F
FARGO          MOSUNNY   84  59  42 N10       30.06F
WAHPETON ARPT  MOCLDY    81  59  47 W9        30.07R
$$

 *****  WEATHER ACROSS CENTRAL AND WESTERN NORTH DAKOTA  *****

CITY           SKY/WX    TMP DP  RH WIND       PRES   REMARKS
JAMESTOWN      MOSUNNY   83  58  42 VRB3      30.08F
BISMARCK       SUNNY     89  55  31 S7        30.06S
MINOT          PTSUNNY   79  58  48 E5        30.09S
MINOT AFB      PTSUNNY   79  60  51 S5        30.09S
GARRISON         N/A     83  61  47 VRB5      30.09S
WILLISTON      PTSUNNY   81  58  45 E8        30.09F
DICKINSON      MOSUNNY   84  61  45 E13G18    30.07F
HETTINGER      PTSUNNY   86  53  32 SE8       30.07R
$$

 *****  OTHER OBSERVATIONS NORTHEAST NORTH DAKOTA  *****

CITY           SKY/WX    TMP DP  RH WIND       PRES   REMARKS
WALHALLA       FAIR      81  63  54 CALM        N/A
LANGDON        FAIR      82  54  36 NW3       30.10F
CAVALIER       FAIR      82  61  47 NE5       30.07F
GRAFTON        FAIR      81  61  50 NE7       30.07S
CANDO          FAIR      81  61  50 S5        30.10S
FORT TOTTEN      N/A     82  63  52 N2        29.95S
ROLLA            N/A     77  55  47 E5        30.12S
RUGBY          FAIR      77  59  53 S5        30.09S
 ***** THE ABOVE OBSERVATIONS ARE NON NWS ARE NOT QUALITY
        CONTROLLED AND MAY MIS-REPORT RAIN FOR SNOW...
$$

 *****  OTHER OBSERVATIONS SOUTHEAST NORTH DAKOTA *****

CITY           SKY/WX    TMP DP  RH WIND       PRES   REMARKS
COOPERSTOWN    NOT AVBL
VALLEY CITY    FAIR      82  59  44 E8        30.09S
OAKES          NOT AVBL
GWINNER        MOCLDY    82  59  44 CALM      30.09F
SHEYENNE NWR     N/A     86  60  41 N6        29.95
BUFFALO          N/A     82  54  37 N6          N/A
WYNDMERE       NOT AVBL
 ***** THE ABOVE OBSERVATIONS ARE NON NWS ARE NOT QUALITY
       CONTROLLED AND MAY MIS-REPORT RAIN FOR SNOW...
$$

  *****  WEATHER ACROSS NORTHERN MINNESOTA  *****

CITY           SKY/WX    TMP DP  RH WIND       PRES   REMARKS
FLAG ISLAND    SUNNY     75  46  35 CALM      30.07S
WARROAD        SUNNY     75  57  53 E6        30.08F
ROSEAU         MOSUNNY   81  55  41 CALM      30.07F
HALLOCK        MOSUNNY   81  61  50 NE3       30.06F
THF RVR FALLS  SUNNY     81  55  41 N7        30.08S
HALSTAD          N/A     82  54  37 N6          N/A
FOSSTON        MOSUNNY   79  61  53 N5        30.09S
BAUDETTE       SUNNY     79  52  38 NW8       30.09S
WASKISH        SUNNY     79  61  53 CALM      30.07S
CROOKSTON      MOSUNNY   81  55  41 N7        30.08S
$$
  *****  WEATHER ACROSS CENTRAL AND WEST MINNESOTA  *****

CITY           SKY/WX    TMP DP  RH WIND       PRES   REMARKS
BEMIDJI        MOSUNNY   78  56  45 N9        30.07S
PARK RAPIDS    MOSUNNY   79  52  38 W7        30.07S
WADENA         SUNNY     81  57  44 NW7       30.07S
DETROIT LAKES  SUNNY     79  57  47 N8        30.10R
MOORHEAD       MOSUNNY   81  59  47 N8        30.08S
FERGUS FALLS   MOSUNNY   81  57  44 N10G17    30.06S
ELBOW LAKE     FAIR      80  58  47 N8        30.07S
MORRIS MN      SUNNY     82  61  47 NW6       30.07S
STAPLES        MOSUNNY   82  54  36 NW8       30.06F
WHEATON        MOSUNNY   81  57  44 W3        30.09S
$$
  *****  WEATHER ELSEWHERE ACROSS MINNESOTA  *****

CITY           SKY/WX    TMP DP  RH WIND       PRES   REMARKS
DULUTH         LGT RAIN  73  55  53 S8        30.07S
INTRNTL FALLS  SUNNY     78  51  38 NE5       30.07R
ELY            MOSUNNY   75  52  43 CALM      30.06F
CLOQUET        MOSUNNY   75  55  50 SE7       30.06F
BRAINERD       MOSUNNY   78  61  55 W7        30.07F
HIBBING        PTSUNNY   80  56  43 N6        30.06S
ALEXANDRIA     PTSUNNY   79  57  46 NW8       30.10R
SAINT CLOUD    MOSUNNY   86  57  37 VRB3      30.05F
MINNEAPOLIS    MOSUNNY   84  56  38 NW7       30.05F
$$

  *****  WEATHER ACROSS SOUTH DAKOTA  *****

CITY           SKY/WX    TMP DP  RH WIND       PRES   REMARKS
SIOUX FALLS    MOSUNNY   83  56  39 CALM      30.10F
BROOKINGS      NOT AVBL
WATERTOWN      PTSUNNY   81  53  37 W6        30.10S
HURON          SUNNY     83  56  39 CALM      30.07F
SISSETON         N/A     84  60  44 N6        30.07S
ABERDEEN       SUNNY     83  54  36 NE5       30.08S
MITCHELL       SUNNY     83  59  44 SE9       30.09F
PIERRE         SUNNY     91  57  31 SE16G23   30.01F
MOBRIDGE       SUNNY     88  59  37 SE14      30.02F
RAPID CITY     PTSUNNY   78  48  34 SW12G23   30.08F
$$

  *****  SOME WEATHER IN NEARBY STATES *****

CITY           SKY/WX    TMP DP  RH WIND       PRES   REMARKS
GLASGOW MT     SUNNY     89  51  27 MISG      30.08S
GREAT FALLS MT SUNNY     86  45  23 VRB3      30.17F
CHEYENNE WY    MOSUNNY   76  42  29 SW10G20   30.31F
SCOTTSBLUFF NE SUNNY     88  39  17 VRB5      30.18F
OMAHA NE       MOSUNNY   83  59  44 VRB5      30.09S
DES MOINES IA  MOSUNNY   84  61  45 NE6       30.08S
DAVENPORT IA   MOSUNNY   80  60  50 CALM      30.07F
CHICAGO IL     LGT RAIN  75  60  59 CALM      30.07S
EAU CLAIRE WI  PTSUNNY   79  61  53 N5        30.04F
LA CROSSE WI   SUNNY     84  59  42 VRB6      30.05F
$$

  *****  SOME NATIONAL WEATHER *****

CITY           SKY/WX    TMP DP  RH WIND       PRES   REMARKS
LA GUARDIA NY  CLOUDY    77  67  71 S15G23    30.20R
RALEIGH NC     RAIN      66  63  88 NE8G21    30.10R FOG
ATLANTA GA     PTSUNNY   78  66  66 E8        30.06S
NEW ORLEANS LA CLOUDY    86  68  54 S7        29.99S
OKLAHOMA CITY  PTSUNNY   84  63  49 VRB5      30.08F
ALBUQUERQUE NM MOSUNNY   77  55  46 VRB5      30.24F
SALT LAKE CITY MOSUNNY   86  45  23 SW5       30.13F
LOS ANGELES CA MOSUNNY   75  63  66 W10       29.92F
BOISE ID       SUNNY     93  46  19 CALM      30.05F
SEATTLE WA     PTSUNNY   78  51  38 W7        30.04F
$$

*** WEATHER ACROSS MANITOBA...SASKATCHEWAN AND ONTARIO ***
                ***ONTARIO***

CITY           SKY/WX    TMP DP  RH WIND       PRES   REMARKS
GERALDTON      PTSUNNY   66  52  59 NW6       30.06S
THUNDER BAY    PTSUNNY   72  55  56 S13       30.06R
SIOUX LOOKOUT  MOSUNNY   75  48  38 W5        30.06S
TORONTO        MOSUNNY   79  63  57 S9        30.07F
BIG TROUT LK   SUNNY     66  50  55 SE7       30.03F
PICKLE LAKE    MOSUNNY   72  48  43 N5        30.03S
DRYDEN         SUNNY     77  48  36 VRB7      30.07S
KENORA         CLOUDY    77  46  33 W3        30.09S
$$
                *** MANITOBA***

CITY           SKY/WX    TMP DP  RH WIND       PRES   REMARKS
BRANDON        PTSUNNY   81  59  47 SW5       30.08F
DAUPHIN        MOSUNNY   84  59  42 VRB2      30.03F
ISLAND LAKE    CLOUDY    75  52  43 N2        30.02
PILOT MOUND      N/A     79  57  47 SW3         N/A
THE PAS        HVY RAIN N/A N/A N/A N14G22      N/A  VSB 1
THOMPSON       LGT RAIN  66  66 100 N5        29.98R
WINNIPEG       PTSUNNY   82  63  51 NW7       30.05F
LYNN LAKE      PTSUNNY   72  50  46 N10       30.08S
CHURCHILL      CLOUDY    59  55  88 N17       29.97R
GILLAM         CLOUDY   N/A N/A N/A SE3         N/A
$$
                ***SASKATCHEWAN***

CITY           SKY/WX    TMP DP  RH WIND       PRES   REMARKS
ESTEVAN        MOSUNNY   81  59  47 SE10      30.11S
KINDERSLEY     CLOUDY    66  63  88 SW3       30.19
LLOYDMINSTER   PTSUNNY   68  59  73 N13       30.21S SMOKE
PRINCE ALBERT  PTSUNNY   72  64  78 NW6       30.12S
REGINA         MOSUNNY   82  61  47 W6        30.09F



USA.gov is the U.S. government's official web portal to all federal, state and local government web resources and services.